GW1337 Weather Reports


time (UTC)temp
C
wind
direction
speed
KPH
gust
KPH
rain 1hr
cm
rain 24hr
cm
rain mn
cm
humidity
%
barometer
mb
20260505040024 16 79 0.0 0.0 0.00 0.00 0.00 68 1011.7
20260505035519 16 79 0.0 0.0 0.00 0.00 0.00 67 1011.8
20260505035016 15 84 0.0 1.6 0.00 0.00 0.00 68 1011.7
20260505034513 16 83 0.0 0.0 0.00 0.00 0.00 68 1011.9
20260505034010 16 83 0.0 0.0 0.00 0.00 0.00 68 1011.6
20260505033507 16 83 0.0 0.0 0.00 0.00 0.00 66 1011.6
20260505033005 16 83 0.0 0.0 0.00 0.00 0.00 66 1011.9
20260505032502 16 83 0.0 0.0 0.00 0.00 0.00 66 1011.7
20260505031958 16 83 0.0 0.0 0.00 0.00 0.00 65 1011.5
20260505031455 16 83 0.0 0.0 0.00 0.00 0.00 63 1011.6
20260505030952 16 83 0.0 0.0 0.00 0.00 0.00 63 1011.7
20260505030449 16 84 0.0 0.0 0.00 0.00 0.00 62 1011.9
20260505025944 16 58 0.0 1.6 0.00 0.00 0.00 62 1011.7
20260505025441 16 111 0.0 0.0 0.00 0.00 0.00 61 1011.8
20260505024940 16 111 0.0 0.0 0.00 0.00 0.00 60 1011.8
20260505024437 17 111 0.0 0.0 0.00 0.00 0.00 61 1011.9
20260505023934 17 111 0.0 0.0 0.00 0.00 0.00 59 1011.9
20260505023431 17 112 0.0 0.0 0.00 0.00 0.00 59 1011.8
20260505022928 17 111 0.0 1.6 0.00 0.00 0.00 59 1012.0
20260505022426 16 75 0.0 0.0 0.00 0.00 0.00 60 1011.9
20260505021923 17 74 0.0 0.0 0.00 0.00 0.00 59 1011.8
20260505021419 17 74 0.0 0.0 0.00 0.00 0.00 59 1011.8
20260505020915 17 74 0.0 0.0 0.00 0.00 0.00 59 1011.8
20260505020410 17 75 0.0 0.0 0.00 0.00 0.00 58 1011.8
20260505015908 17 66 0.0 0.0 0.00 0.00 0.00 56 1011.8
20260505015405 17 111 0.0 0.0 0.00 0.00 0.00 56 1011.7
20260505014902 17 111 0.0 1.6 0.00 0.00 0.00 56 1011.8
20260505014359 17 111 0.0 1.6 0.00 0.00 0.00 56 1011.7
20260505013855 17 116 0.0 3.2 0.00 0.00 0.00 57 1011.7
20260505013352 17 95 0.0 0.0 0.00 0.00 0.00 57 1011.7
20260505012851 17 95 0.0 0.0 0.00 0.00 0.00 55 1011.6
20260505012349 17 95 0.0 0.0 0.00 0.00 0.00 55 1011.7
20260505011844 17 97 0.0 0.0 0.00 0.00 0.00 55 1011.5
20260505011341 18 97 0.0 0.0 0.00 0.00 0.00 54 1011.6
20260505010837 18 96 0.0 1.6 0.00 0.00 0.00 54 1011.4
20260505010333 18 96 0.0 0.0 0.00 0.00 0.00 55 1011.5
20260505005830 18 96 0.0 0.0 0.00 0.00 0.00 54 1011.4
20260505005327 18 96 0.0 0.0 0.00 0.00 0.00 53 1011.3
20260505004824 18 96 0.0 0.0 0.00 0.00 0.00 53 1011.3
20260505004320 19 97 0.0 1.6 0.00 0.00 0.00 52 1011.3
20260505003818 19 108 0.0 1.6 0.00 0.00 0.00 51 1011.2
20260505003315 19 114 0.0 1.6 0.00 0.00 0.00 50 1011.3
20260505002811 20 112 0.0 1.6 0.00 0.00 0.00 50 1011.3
20260505002308 20 112 0.0 1.6 0.00 0.00 0.00 49 1011.2
20260505001806 20 99 1.6 1.6 0.00 0.00 0.00 47 1011.1
20260505001303 20 129 1.6 3.2 0.00 0.00 0.00 47 1011.1
20260505000800 20 97 0.0 1.6 0.00 0.00 0.00 48 1011.2
20260505000258 20 88 1.6 1.6 0.00 0.00 0.00 46 1011.5
20260504235754 20 107 0.0 1.6 0.00 0.00 0.00 46 1011.2
20260504235250 20 119 1.6 1.6 0.00 0.00 0.00 45 1011.1
20260504234748 21 109 0.0 1.6 0.00 0.00 0.00 45 1011.0
20260504234245 21 109 0.0 1.6 0.00 0.00 0.00 45 1011.0
20260504233741 21 107 0.0 1.6 0.00 0.00 0.00 45 1011.1
20260504233237 21 83 0.0 1.6 0.00 0.00 0.00 45 1010.9
20260504232735 21 95 0.0 1.6 0.00 0.00 0.00 45 1011.0
20260504232231 21 93 1.6 1.6 0.00 0.00 0.00 42 1011.1
20260504231728 21 100 0.0 1.6 0.00 0.00 0.00 43 1011.0
20260504231225 21 172 1.6 3.2 0.00 0.00 0.00 41 1011.1
20260504230721 22 65 0.0 1.6 0.00 0.00 0.00 44 1010.9
20260504230220 22 130 0.0 1.6 0.00 0.00 0.00 41 1011.0
20260504225718 22 127 0.0 3.2 0.00 0.00 0.00 42 1010.9
20260504225214 22 101 0.0 1.6 0.00 0.00 0.00 41 1011.0
20260504224711 22 97 1.6 1.6 0.00 0.00 0.00 40 1011.1
20260504224209 22 62 0.0 1.6 0.00 0.00 0.00 42 1011.2
20260504223705 22 273 1.6 3.2 0.00 0.00 0.00 41 1011.0
20260504223200 22 4 1.6 3.2 0.00 0.00 0.00 40 1010.8
20260504222658 22 111 1.6 1.6 0.00 0.00 0.00 42 1010.8
20260504222154 22 86 1.6 4.8 0.00 0.00 0.00 40 1010.9
20260504221652 23 93 1.6 3.2 0.00 0.00 0.00 42 1010.9
20260504221149 23 47 0.0 1.6 0.00 0.00 0.00 41 1010.8
20260504220645 23 51 1.6 1.6 0.00 0.00 0.00 39 1010.9
20260504220143 23 126 0.0 1.6 0.00 0.00 0.00 40 1011.1
20260504215639 23 49 0.0 1.6 0.00 0.00 0.00 41 1011.0
20260504215136 23 72 1.6 1.6 0.00 0.00 0.00 39 1011.1
20260504214632 23 40 1.6 3.2 0.00 0.00 0.00 41 1010.9
20260504214130 23 125 1.6 1.6 0.00 0.00 0.00 40 1011.1
20260504213625 23 160 1.6 1.6 0.00 0.00 0.00 39 1011.2
20260504213122 23 65 1.6 3.2 0.00 0.00 0.00 40 1011.1
20260504212618 23 118 1.6 3.2 0.00 0.00 0.00 37 1011.3
20260504212115 23 22 1.6 3.2 0.00 0.00 0.00 40 1011.3
20260504211613 23 15 1.6 3.2 0.00 0.00 0.00 39 1011.1
20260504211109 23 267 1.6 4.8 0.00 0.00 0.00 37 1011.4
20260504210607 23 81 0.0 1.6 0.00 0.00 0.00 39 1011.2
20260504205601 23 44 1.6 3.2 0.00 0.00 0.00 39 1011.3
20260504205058 23 12 3.2 4.8 0.00 0.00 0.00 39 1011.4
20260504204556 23 134 1.6 3.2 0.00 0.00 0.00 38 1011.2
20260504204055 23 118 1.6 3.2 0.00 0.00 0.00 37 1011.2
20260504203553 24 138 1.6 3.2 0.00 0.00 0.00 36 1011.4
20260504203050 25 26 1.6 3.2 0.00 0.00 0.00 37 1011.6
20260504202545 25 179 3.2 4.8 0.00 0.00 0.00 36 1011.5
20260504202042 26 347 8.0 9.7 0.00 0.00 0.00 34 1011.3
20260504201539 26 47 1.6 1.6 0.00 0.00 0.00 37 1011.7
20260504201037 26 220 1.6 3.2 0.00 0.00 0.00 35 1011.5
20260504200533 25 167 1.6 3.2 0.00 0.00 0.00 36 1011.8
20260504200030 25 12 1.6 3.2 0.00 0.00 0.00 38 1011.8
20260504195526 25 132 0.0 1.6 0.00 0.00 0.00 35 1011.9
20260504195023 25 14 1.6 4.8 0.00 0.00 0.00 34 1012.0
20260504194519 25 22 1.6 8.0 0.00 0.00 0.00 36 1012.1
20260504194015 25 343 1.6 3.2 0.00 0.00 0.00 34 1012.3
20260504193512 25 192 1.6 3.2 0.00 0.00 0.00 34 1012.3
20260504193011 25 5 1.6 3.2 0.00 0.00 0.00 37 1012.6
20260504192509 25 17 1.6 3.2 0.00 0.00 0.00 36 1012.5
20260504192007 25 3 1.6 8.0 0.00 0.00 0.00 35 1012.7
20260504191504 25 348 3.2 3.2 0.00 0.00 0.00 35 1012.7
20260504190959 25 31 0.0 3.2 0.00 0.00 0.00 34 1012.7
20260504190455 25 3 0.0 4.8 0.00 0.00 0.00 39 1012.8
20260504185952 25 356 1.6 3.2 0.00 0.00 0.00 35 1012.8
20260504185449 25 246 0.0 1.6 0.00 0.00 0.00 35 1012.8
20260504184945 25 1 0.0 3.2 0.00 0.00 0.00 36 1013.0
20260504184441 24 294 3.2 3.2 0.00 0.00 0.00 35 1012.8
20260504183937 24 288 1.6 3.2 0.00 0.00 0.00 35 1012.9
20260504183434 23 3 3.2 4.8 0.00 0.00 0.00 38 1013.1
20260504182932 24 11 6.4 8.0 0.00 0.00 0.00 36 1013.2
20260504182429 25 292 1.6 3.2 0.00 0.00 0.00 35 1013.3
20260504181926 25 207 1.6 3.2 0.00 0.00 0.00 33 1013.1
20260504181423 24 4 0.0 3.2 0.00 0.00 0.00 41 1013.0
20260504180922 24 6 1.6 4.8 0.00 0.00 0.00 37 1013.2
20260504180420 25 237 1.6 3.2 0.00 0.00 0.00 34 1013.4
20260504175918 25 9 1.6 4.8 0.00 0.00 0.00 37 1013.4
20260504175415 24 9 3.2 4.8 0.00 0.00 0.00 34 1013.3
20260504174913 25 273 1.6 3.2 0.00 0.00 0.00 35 1013.6
20260504174410 25 17 1.6 3.2 0.00 0.00 0.00 34 1013.6
20260504173907 24 24 1.6 1.6 0.00 0.00 0.00 42 1013.6
20260504173403 23 24 1.6 1.6 0.00 0.00 0.00 36 1013.8
20260504172901 23 48 1.6 3.2 0.00 0.00 0.00 38 1013.6
20260504172357 23 12 0.0 1.6 0.00 0.00 0.00 33 1014.0
20260504171853 24 7 3.2 3.2 0.00 0.00 0.00 36 1014.0
20260504171351 23 29 1.6 3.2 0.00 0.00 0.00 43 1014.0
20260504170848 23 95 1.6 3.2 0.00 0.00 0.00 37 1014.2
20260504170344 23 13 1.6 8.0 0.00 0.00 0.00 37 1014.2
20260504160303 22 23 1.6 3.2 0.00 0.00 0.00 34 1015.1
20260504150728 20 329 0.0 1.6 0.00 0.00 0.00 48 1015.2
20260504150225 20 330 0.0 1.6 0.00 0.00 0.00 45 1015.3
20260504141154 17 54 1.6 3.2 0.00 0.00 0.00 52 1015.6
20260504140651 17 138 1.6 3.2 0.00 0.00 0.00 54 1015.7
20260504140146 17 128 0.0 1.6 0.00 0.00 0.00 54 1015.6
20260504130615 15 43 1.6 3.2 0.00 0.00 0.00 67 1015.8
20260504130112 14 55 0.0 3.2 0.00 0.00 0.00 68 1015.9
20260504110503 10 64 1.6 1.6 0.00 0.00 0.00 86 1016.3
20260504100425 8 86 1.6 1.6 0.00 0.00 0.00 86 1016.7
20260504081818 7 67 0.0 1.6 0.00 0.00 0.00 83 1016.7
20260504081314 7 67 0.0 0.0 0.00 0.00 0.00 83 1016.6
20260504080810 7 67 0.0 0.0 0.00 0.00 0.00 83 1016.7
20260504080308 7 67 0.0 1.6 0.00 0.00 0.00 82 1016.7
20260504070235 8 68 0.0 1.6 0.00 0.00 0.00 81 1016.6
20260504060155 8 69 0.0 0.0 0.00 0.00 0.00 76 1016.8
20260504050623 8 75 0.0 0.0 0.00 0.00 0.00 72 1016.9
20260504050120 8 76 0.0 0.0 0.00 0.00 0.00 72 1016.7
20260504045618 8 76 0.0 1.6 0.00 0.00 0.00 74 1016.7
20260504045112 8 75 0.0 0.0 0.00 0.00 0.00 75 1016.5
20260504044610 8 70 0.0 0.0 0.00 0.00 0.00 74 1016.9
20260504044107 7 70 0.0 0.0 0.00 0.00 0.00 74 1016.7
20260504043604 7 70 0.0 1.6 0.00 0.00 0.00 75 1016.5
20260504043101 7 70 0.0 1.6 0.00 0.00 0.00 75 1016.5
20260504042558 7 70 0.0 0.0 0.00 0.00 0.00 75 1016.5
20260504042055 7 70 0.0 0.0 0.00 0.00 0.00 75 1016.3
20260504041551 7 70 0.0 0.0 0.00 0.00 0.00 76 1016.3
20260504041047 7 70 0.0 0.0 0.00 0.00 0.00 76 1016.2
20260504040545 7 71 0.0 0.0 0.00 0.00 0.00 76 1016.4